Time,TemperatureF,DewpointF,PressureIn,WindDirection,WindDirectionDegrees,WindSpeedMPH,WindSpeedGustMPH,Humidity,HourlyPrecipIn,Conditions,Clouds,dailyrainin,SoftwareType,DateUTC
2013-06-17 00:02:00,80.0,75.0,29.97,SW,216,0.0,0.0,86,0.00,,,0.00,,2013-06-17 05:02:00,
2013-06-17 00:12:00,79.0,75.0,29.97,SW,216,0.0,0.0,88,0.00,,,0.00,,2013-06-17 05:12:00,
2013-06-17 00:22:00,78.0,75.0,29.97,SW,216,0.0,0.0,90,0.00,,,0.00,,2013-06-17 05:22:00,
2013-06-17 00:33:00,78.0,75.0,29.96,SW,216,0.0,0.0,91,0.00,,,0.00,,2013-06-17 05:33:00,
2013-06-17 00:44:00,78.0,75.0,29.96,SW,216,0.0,0.0,91,0.00,,,0.00,,2013-06-17 05:44:00,
2013-06-17 00:53:00,78.0,75.0,29.96,SW,216,0.0,0.0,90,0.00,,,0.00,,2013-06-17 05:53:00,
2013-06-17 01:02:00,79.0,76.0,29.97,SW,216,0.0,0.0,90,0.00,,,0.00,,2013-06-17 06:02:00,
2013-06-17 01:12:00,79.0,76.0,29.97,SW,216,0.0,0.0,90,0.00,,,0.00,,2013-06-17 06:12:00,
2013-06-17 01:22:00,79.0,76.0,29.97,SW,216,0.0,0.0,90,0.00,,,0.00,,2013-06-17 06:22:00,
2013-06-17 01:33:00,79.0,76.0,29.97,SW,216,0.0,0.0,91,0.00,,,0.00,,2013-06-17 06:33:00,
2013-06-17 01:43:00,78.0,75.0,29.97,SW,216,0.0,0.0,91,0.00,,,0.00,,2013-06-17 06:43:00,
2013-06-17 01:53:00,78.0,75.0,29.97,SW,216,0.0,0.0,91,0.00,,,0.00,,2013-06-17 06:53:00,
2013-06-17 02:02:00,77.0,75.0,29.96,SW,216,0.0,0.0,93,0.00,,,0.00,,2013-06-17 07:02:00,
2013-06-17 02:12:00,76.0,74.0,29.96,SW,216,0.0,0.0,94,0.00,,,0.00,,2013-06-17 07:12:00,
2013-06-17 02:22:00,76.0,74.0,29.97,SW,216,0.0,0.0,94,0.00,,,0.00,,2013-06-17 07:22:00,
2013-06-17 02:33:00,76.0,74.0,29.97,SW,216,0.0,0.0,94,0.00,,,0.00,,2013-06-17 07:33:00,
2013-06-17 02:43:00,76.0,74.0,29.97,SW,216,0.0,0.0,94,0.00,,,0.00,,2013-06-17 07:43:00,
2013-06-17 02:52:00,76.0,74.0,29.97,SW,216,0.0,0.0,94,0.00,,,0.00,,2013-06-17 07:52:00,
2013-06-17 03:01:00,76.0,74.0,29.97,SW,216,0.0,0.0,94,0.00,,,0.00,,2013-06-17 08:01:00,
2013-06-17 03:11:00,75.0,74.0,29.96,SW,216,0.0,0.0,96,0.00,,,0.00,,2013-06-17 08:11:00,
2013-06-17 03:22:00,75.0,74.0,29.97,SW,216,0.0,0.0,96,0.00,,,0.00,,2013-06-17 08:22:00,
2013-06-17 03:34:00,75.0,74.0,29.97,SW,216,0.0,0.0,96,0.00,,,0.00,,2013-06-17 08:34:00,
2013-06-17 03:43:00,74.0,73.0,29.96,SW,216,0.0,0.0,96,0.00,,,0.00,,2013-06-17 08:43:00,
2013-06-17 03:53:00,74.0,73.0,29.96,SW,216,0.0,0.0,96,0.00,,,0.00,,2013-06-17 08:53:00,
2013-06-17 04:02:00,74.0,73.0,29.96,SW,216,0.0,0.0,96,0.00,,,0.00,,2013-06-17 09:02:00,
2013-06-17 04:11:00,74.0,73.0,29.95,SW,216,0.0,0.0,97,0.00,,,0.00,,2013-06-17 09:11:00,
2013-06-17 04:22:00,74.0,73.0,29.95,SW,216,0.0,0.0,97,0.00,,,0.00,,2013-06-17 09:22:00,
2013-06-17 04:34:00,74.0,73.0,29.95,SW,216,0.0,0.0,97,0.00,,,0.00,,2013-06-17 09:34:00,
2013-06-17 04:43:00,74.0,73.0,29.95,SW,216,0.0,0.0,97,0.00,,,0.00,,2013-06-17 09:43:00,
2013-06-17 04:52:00,74.0,73.0,29.95,SW,216,0.0,0.0,97,0.00,,,0.00,,2013-06-17 09:52:00,
2013-06-17 05:02:00,74.0,73.0,29.94,SW,216,0.0,0.0,97,0.00,,,0.00,,2013-06-17 10:02:00,
2013-06-17 05:12:00,74.0,73.0,29.95,SW,216,0.0,0.0,97,0.00,,,0.00,,2013-06-17 10:12:00,
2013-06-17 05:22:00,74.0,73.0,29.95,SW,216,0.0,0.0,97,0.00,,,0.00,,2013-06-17 10:22:00,
2013-06-17 05:33:00,74.0,73.0,29.96,SW,216,0.0,0.0,97,0.00,,,0.00,,2013-06-17 10:33:00,
2013-06-17 05:43:00,74.0,73.0,29.96,SW,216,0.0,0.0,97,0.00,,,0.00,,2013-06-17 10:43:00,
2013-06-17 05:53:00,74.0,73.0,29.95,SW,216,0.0,0.0,97,0.00,,,0.00,,2013-06-17 10:53:00,
2013-06-17 06:02:00,73.0,72.0,29.96,SW,216,0.0,0.0,97,0.00,,,0.00,,2013-06-17 11:02:00,
2013-06-17 06:12:00,73.0,72.0,29.96,SW,216,0.0,0.0,97,0.00,,,0.00,,2013-06-17 11:12:00,
2013-06-17 06:23:00,73.0,72.0,29.97,SW,216,0.0,0.0,97,0.00,,,0.00,,2013-06-17 11:23:00,
2013-06-17 06:33:00,73.0,72.0,29.97,SW,216,0.0,0.0,97,0.00,,,0.00,,2013-06-17 11:33:00,
2013-06-17 06:43:00,73.0,72.0,29.97,SW,216,0.0,0.0,97,0.00,,,0.00,,2013-06-17 11:43:00,
2013-06-17 06:53:00,73.0,72.0,29.97,SW,216,0.0,0.0,97,0.00,,,0.00,,2013-06-17 11:53:00,
2013-06-17 07:02:00,74.0,73.0,29.97,SW,216,0.0,0.0,97,0.00,,,0.00,,2013-06-17 12:02:00,
2013-06-17 07:12:00,74.0,73.0,29.97,SW,216,0.0,0.0,97,0.00,,,0.00,,2013-06-17 12:12:00,
2013-06-17 07:22:00,74.0,73.0,29.97,SW,216,0.0,0.0,97,0.00,,,0.00,,2013-06-17 12:22:00,
2013-06-17 07:33:00,74.0,73.0,29.97,SW,216,0.0,0.0,97,0.00,,,0.00,,2013-06-17 12:33:00,
2013-06-17 07:43:00,77.0,76.0,29.97,SW,216,0.0,0.0,97,0.00,,,0.00,,2013-06-17 12:43:00,
2013-06-17 07:53:00,77.0,76.0,29.97,SW,216,0.0,0.0,97,0.00,,,0.00,,2013-06-17 12:53:00,
2013-06-17 08:01:00,77.0,76.0,29.97,SW,216,0.0,0.0,97,0.00,,,0.00,,2013-06-17 13:01:00,
2013-06-17 08:12:00,79.0,76.0,29.97,SW,216,0.0,0.0,91,0.00,,,0.00,,2013-06-17 13:12:00,
2013-06-17 08:22:00,79.0,76.0,29.97,SW,216,0.0,0.0,91,0.00,,,0.00,,2013-06-17 13:22:00,
2013-06-17 08:32:00,79.0,76.0,29.97,SW,216,0.0,0.0,91,0.00,,,0.00,,2013-06-17 13:32:00,
2013-06-17 08:43:00,82.0,77.0,29.96,WSW,237,0.0,1.0,84,0.00,,,0.00,,2013-06-17 13:43:00,
2013-06-17 08:52:00,83.0,77.0,29.96,SW,222,0.0,2.0,82,0.00,,,0.00,,2013-06-17 13:52:00,
2013-06-17 09:02:00,84.0,77.0,29.96,SW,220,0.0,2.0,79,0.00,,,0.00,,2013-06-17 14:02:00,
2013-06-17 09:12:00,84.0,77.0,29.96,SW,220,0.0,2.0,79,0.00,,,0.00,,2013-06-17 14:12:00,
2013-06-17 09:22:00,85.0,77.0,29.95,WSW,241,1.0,3.0,76,0.00,,,0.00,,2013-06-17 14:22:00,
2013-06-17 09:34:00,85.0,77.0,29.95,WSW,241,1.0,3.0,76,0.00,,,0.00,,2013-06-17 14:34:00,
2013-06-17 09:43:00,85.0,76.0,29.95,SW,215,1.0,3.0,74,0.00,,,0.00,,2013-06-17 14:43:00,
2013-06-17 09:53:00,85.0,75.0,29.94,SSW,196,0.0,2.0,73,0.00,,,0.00,,2013-06-17 14:53:00,
2013-06-17 10:01:00,86.0,76.0,29.93,SW,234,0.0,3.0,73,0.00,,,0.00,,2013-06-17 15:01:00,
2013-06-17 10:12:00,86.0,75.0,29.93,SW,228,1.0,3.0,70,0.00,,,0.00,,2013-06-17 15:12:00,
2013-06-17 10:22:00,88.0,74.0,29.93,West,267,1.0,3.0,63,0.00,,,0.00,,2013-06-17 15:22:00,
2013-06-17 10:33:00,88.0,74.0,29.93,West,267,1.0,3.0,63,0.00,,,0.00,,2013-06-17 15:33:00,
2013-06-17 10:43:00,88.0,74.0,29.93,West,267,1.0,3.0,63,0.00,,,0.00,,2013-06-17 15:43:00,
2013-06-17 10:52:00,88.0,74.0,29.93,West,267,1.0,3.0,63,0.00,,,0.00,,2013-06-17 15:52:00,
2013-06-17 11:02:00,88.0,72.0,29.93,West,278,1.0,5.0,60,0.00,,,0.00,,2013-06-17 16:02:00,
2013-06-17 11:12:00,90.0,74.0,29.93,SW,217,0.0,5.0,59,0.00,,,0.00,,2013-06-17 16:12:00,
2013-06-17 11:22:00,90.0,74.0,29.93,SW,217,0.0,5.0,59,0.00,,,0.00,,2013-06-17 16:22:00,
2013-06-17 11:33:00,90.0,74.0,29.93,SW,217,0.0,5.0,59,0.00,,,0.00,,2013-06-17 16:33:00,
2013-06-17 11:43:00,90.0,74.0,29.93,SW,217,0.0,5.0,59,0.00,,,0.00,,2013-06-17 16:43:00,
2013-06-17 11:54:00,89.0,75.0,29.93,WSW,240,2.0,5.0,63,0.00,,,0.00,,2013-06-17 16:54:00,
2013-06-17 12:02:00,91.0,74.0,29.93,West,270,0.0,3.0,58,0.00,,,0.00,,2013-06-17 17:02:00,
2013-06-17 12:12:00,90.0,75.0,29.93,NW,304,1.0,5.0,61,0.00,,,0.00,,2013-06-17 17:12:00,
2013-06-17 12:22:00,90.0,74.0,29.93,SW,223,1.0,5.0,60,0.00,,,0.00,,2013-06-17 17:22:00,
2013-06-17 12:33:00,91.0,77.0,29.93,WNW,287,0.0,6.0,63,0.00,,,0.00,,2013-06-17 17:33:00,
2013-06-17 12:43:00,91.0,77.0,29.93,WNW,287,0.0,6.0,63,0.00,,,0.00,,2013-06-17 17:43:00,
2013-06-17 12:52:00,91.0,75.0,29.92,WSW,247,0.0,3.0,60,0.00,,,0.00,,2013-06-17 17:52:00,
2013-06-17 13:02:00,91.0,75.0,29.92,WSW,247,0.0,3.0,60,0.00,,,0.00,,2013-06-17 18:02:00,
2013-06-17 13:12:00,90.0,74.0,29.91,West,281,0.0,3.0,60,0.00,,,0.00,,2013-06-17 18:12:00,
2013-06-17 13:23:00,90.0,75.0,29.91,WSW,248,1.0,5.0,61,0.00,,,0.00,,2013-06-17 18:23:00,
2013-06-17 13:33:00,90.0,75.0,29.91,WSW,248,1.0,5.0,61,0.00,,,0.00,,2013-06-17 18:33:00,
2013-06-17 13:43:00,88.0,76.0,29.91,West,265,3.0,6.0,68,0.00,,,0.00,,2013-06-17 18:43:00,
2013-06-17 13:53:00,81.0,76.0,29.91,WNW,301,0.0,3.0,85,0.00,,,0.00,,2013-06-17 18:53:00,
2013-06-17 14:02:00,81.0,76.0,29.92,SW,222,0.0,2.0,84,0.00,,,0.00,,2013-06-17 19:02:00,
2013-06-17 14:11:00,81.0,76.0,29.92,SW,222,0.0,2.0,84,0.00,,,0.00,,2013-06-17 19:11:00,
2013-06-17 14:22:00,83.0,75.0,29.92,West,278,1.0,3.0,78,0.00,,,0.00,,2013-06-17 19:22:00,
2013-06-17 14:33:00,83.0,75.0,29.91,SW,220,0.0,5.0,78,0.00,,,0.00,,2013-06-17 19:33:00,
2013-06-17 14:43:00,83.0,75.0,29.91,SW,220,0.0,5.0,78,0.00,,,0.00,,2013-06-17 19:43:00,
2013-06-17 14:53:00,84.0,76.0,29.90,SSW,209,0.0,2.0,76,0.00,,,0.00,,2013-06-17 19:53:00,
2013-06-17 15:02:00,84.0,76.0,29.90,SSW,209,0.0,2.0,76,0.00,,,0.00,,2013-06-17 20:02:00,
2013-06-17 15:11:00,88.0,76.0,29.89,WSW,242,1.0,5.0,68,0.00,,,0.00,,2013-06-17 20:11:00,
2013-06-17 15:22:00,86.0,76.0,29.88,SSW,213,0.0,6.0,73,0.00,,,0.00,,2013-06-17 20:22:00,
2013-06-17 15:34:00,86.0,76.0,29.88,SSW,213,0.0,6.0,73,0.00,,,0.00,,2013-06-17 20:34:00,
2013-06-17 15:43:00,85.0,76.0,29.87,WSW,253,1.0,7.0,74,0.00,,,0.00,,2013-06-17 20:43:00,
2013-06-17 15:52:00,85.0,76.0,29.87,WSW,253,1.0,7.0,74,0.00,,,0.00,,2013-06-17 20:52:00,
2013-06-17 16:01:00,88.0,76.0,29.86,North,4,0.0,3.0,68,0.00,,,0.00,,2013-06-17 21:01:00,
2013-06-17 16:12:00,88.0,77.0,29.86,WSW,254,1.0,5.0,69,0.00,,,0.00,,2013-06-17 21:12:00,
2013-06-17 16:22:00,89.0,77.0,29.85,WSW,248,2.0,5.0,67,0.00,,,0.00,,2013-06-17 21:22:00,
2013-06-17 16:33:00,89.0,77.0,29.85,WSW,248,2.0,5.0,67,0.00,,,0.00,,2013-06-17 21:33:00,
2013-06-17 16:43:00,89.0,77.0,29.85,WSW,248,2.0,5.0,67,0.00,,,0.00,,2013-06-17 21:43:00,
2013-06-17 16:52:00,90.0,78.0,29.85,SSW,193,0.0,5.0,67,0.00,,,0.00,,2013-06-17 21:52:00,
2013-06-17 17:01:00,90.0,78.0,29.85,SSW,193,0.0,5.0,67,0.00,,,0.00,,2013-06-17 22:01:00,
2013-06-17 17:11:00,90.0,78.0,29.85,SSW,193,0.0,5.0,67,0.00,,,0.00,,2013-06-17 22:11:00,
2013-06-17 17:22:00,89.0,76.0,29.84,SW,224,1.0,3.0,66,0.00,,,0.00,,2013-06-17 22:22:00,
2013-06-17 17:33:00,90.0,76.0,29.83,SSE,156,1.0,2.0,64,0.00,,,0.00,,2013-06-17 22:33:00,
2013-06-17 17:43:00,90.0,76.0,29.83,SSE,156,1.0,2.0,64,0.00,,,0.00,,2013-06-17 22:43:00,
2013-06-17 17:53:00,90.0,76.0,29.83,WNW,293,1.0,5.0,64,0.00,,,0.00,,2013-06-17 22:53:00,
2013-06-17 18:02:00,90.0,77.0,29.83,SSW,205,0.0,3.0,66,0.00,,,0.00,,2013-06-17 23:02:00,
2013-06-17 18:11:00,90.0,76.0,29.83,WSW,246,2.0,6.0,63,0.00,,,0.00,,2013-06-17 23:11:00,
2013-06-17 18:22:00,90.0,76.0,29.83,WSW,246,2.0,6.0,63,0.00,,,0.00,,2013-06-17 23:22:00,
2013-06-17 18:32:00,90.0,76.0,29.83,WSW,246,2.0,6.0,63,0.00,,,0.00,,2013-06-17 23:32:00,
2013-06-17 18:42:00,90.0,76.0,29.83,WSW,246,2.0,6.0,63,0.00,,,0.00,,2013-06-17 23:42:00,
2013-06-17 18:53:00,89.0,76.0,29.83,SW,226,2.0,6.0,66,0.00,,,0.00,,2013-06-17 23:53:00,
2013-06-17 19:01:00,89.0,76.0,29.83,SW,226,2.0,6.0,66,0.00,,,0.00,,2013-06-18 00:01:00,
2013-06-17 19:12:00,87.0,75.0,29.83,South,186,0.0,5.0,67,0.00,,,0.00,,2013-06-18 00:12:00,
2013-06-17 19:22:00,87.0,75.0,29.83,South,186,0.0,5.0,67,0.00,,,0.00,,2013-06-18 00:22:00,
2013-06-17 19:33:00,88.0,76.0,29.84,WSW,244,0.0,0.0,68,0.00,,,0.00,,2013-06-18 00:33:00,
2013-06-17 19:43:00,88.0,76.0,29.84,WSW,244,0.0,0.0,68,0.00,,,0.00,,2013-06-18 00:43:00,
2013-06-17 19:52:00,87.0,76.0,29.85,WSW,244,0.0,2.0,70,0.00,,,0.00,,2013-06-18 00:52:00,
2013-06-17 20:01:00,87.0,76.0,29.85,WSW,244,0.0,2.0,70,0.00,,,0.00,,2013-06-18 01:01:00,
2013-06-17 20:11:00,86.0,75.0,29.85,WSW,254,0.0,1.0,71,0.00,,,0.00,,2013-06-18 01:11:00,
2013-06-17 20:23:00,86.0,75.0,29.85,WSW,254,0.0,1.0,71,0.00,,,0.00,,2013-06-18 01:23:00,
2013-06-17 20:34:00,86.0,75.0,29.85,WSW,254,0.0,1.0,71,0.00,,,0.00,,2013-06-18 01:34:00,
2013-06-17 20:44:00,84.0,75.0,29.86,WSW,254,0.0,0.0,75,0.00,,,0.00,,2013-06-18 01:44:00,
2013-06-17 20:53:00,84.0,75.0,29.86,WSW,254,0.0,0.0,75,0.00,,,0.00,,2013-06-18 01:53:00,
2013-06-17 21:02:00,83.0,76.0,29.87,WSW,237,0.0,0.0,79,0.00,,,0.00,,2013-06-18 02:02:00,
2013-06-17 21:11:00,83.0,76.0,29.87,WSW,237,0.0,0.0,79,0.00,,,0.00,,2013-06-18 02:11:00,
2013-06-17 21:22:00,83.0,76.0,29.87,WSW,240,0.0,2.0,80,0.00,,,0.00,,2013-06-18 02:22:00,
2013-06-17 21:34:00,82.0,75.0,29.88,WSW,240,0.0,0.0,80,0.00,,,0.00,,2013-06-18 02:34:00,
2013-06-17 21:43:00,82.0,75.0,29.88,WSW,240,0.0,0.0,80,0.00,,,0.00,,2013-06-18 02:43:00,
2013-06-17 21:53:00,81.0,75.0,29.88,WSW,250,0.0,0.0,82,0.00,,,0.00,,2013-06-18 02:53:00,
2013-06-17 22:02:00,81.0,75.0,29.88,WSW,250,0.0,0.0,82,0.00,,,0.00,,2013-06-18 03:02:00,
2013-06-17 22:12:00,81.0,76.0,29.89,WSW,250,0.0,0.0,84,0.00,,,0.00,,2013-06-18 03:12:00,
2013-06-17 22:23:00,81.0,76.0,29.89,WSW,250,0.0,0.0,84,0.00,,,0.00,,2013-06-18 03:23:00,
2013-06-17 22:34:00,80.0,75.0,29.90,WSW,250,0.0,0.0,85,0.00,,,0.00,,2013-06-18 03:34:00,
2013-06-17 22:43:00,80.0,75.0,29.91,SW,224,0.0,0.0,84,0.00,,,0.00,,2013-06-18 03:43:00,
2013-06-17 22:53:00,80.0,75.0,29.91,SW,226,0.0,2.0,85,0.00,,,0.00,,2013-06-18 03:53:00,
2013-06-17 23:02:00,80.0,75.0,29.91,SW,226,0.0,2.0,85,0.00,,,0.00,,2013-06-18 04:02:00,
2013-06-17 23:12:00,80.0,75.0,29.91,SW,226,0.0,2.0,85,0.00,,,0.00,,2013-06-18 04:12:00,
2013-06-17 23:23:00,80.0,75.0,29.91,SW,226,0.0,2.0,85,0.00,,,0.00,,2013-06-18 04:23:00,
2013-06-17 23:34:00,80.0,75.0,29.91,SW,226,0.0,0.0,86,0.00,,,0.00,,2013-06-18 04:34:00,
2013-06-17 23:43:00,80.0,75.0,29.91,SW,226,0.0,0.0,86,0.00,,,0.00,,2013-06-18 04:43:00,
2013-06-17 23:54:00,80.0,75.0,29.91,SW,226,0.0,0.0,86,0.00,,,0.00,,2013-06-18 04:54:00,